Back to catalog

STARLINK-32555

AliveCommunicationsVLEO
NORAD 61918·PAYLOAD·🇺🇸 United States

Launched Nov 11, 2024 from Cape Canaveral Space Force Station

Loading…

Next Passes (next 24 hours)

TLE

FreshSource: CelesTrak SupGP

Epoch: Sep 14, 2026, 15:19 UTC

1 61918C 24207G   26257.63868056  .00046698  00000+0  16920-2 0  2573
2 61918  43.0024 298.5412 0001622 271.4736 118.5622 15.27543175    18

Track STARLINK-32555 in real time with AllMySat

Download on the App Store